Back to catalog

STARLINK-32181

AliveCommunicationsVLEO
NORAD 60349·PAYLOAD·🇺🇸 United States

Launched Aug 2, 2024 from Cape Canaveral Space Force Station

Loading…

Next Passes (next 24 hours)

TLE

FreshSource: CelesTrak SupGP

Epoch: Sep 14, 2026, 21:04 UTC

1 60349C 24136W   26257.87826389  .00046507  00000+0  13746-2 0  2572
2 60349  53.1568 272.3385 0001146  94.1211 296.8710 15.34355884    12

Track STARLINK-32181 in real time with AllMySat

Download on the App Store